Volver al catálogo

ONEWEB-0517

ActivoComunicacionesPO
NORAD 54135·PAYLOAD·🇬🇧 United Kingdom

Lanzado Oct 22, 2022 desde Satish Dhawan Space Centre

Loading…

Próximos Pases (próximas 24 horas)

TLE

ActualizadoSource: CelesTrak SupGP

Época: Sep 14, 2026, 23:40 UTC

1 54135C 22138Y   26257.98664769  .00001787  00000+0  44683-2 0  2577
2 54135  87.9118 287.0798 0002211  98.0412 343.0520 13.19724713    11

Sigue ONEWEB-0517 en tiempo real con AllMySat

Download on the App Store